Simultaneous Nadir Overpasses (SNOs) Predictions

Prediction of SNOs between NOAA-19 and NPP Satellite Orbit:

Table of predicted SNOs for the next 14.0 days since TLE Epoch: 7/6/2024
Index Date (NOAA-19) Time (NOAA-19) Lat,Lon (NOAA-19) SZA (NOAA-19 ) Date (NPP) Time (NPP) Lat,Lon (NPP) SZA (NPP ) Distance(km) Time Diff (sec)
1 07/06/2024 08:00:51 -72.58,-130.37 129.74 07/06/2024 08:02:00 -72.62,-128.45 129.84 63.95 69
2 07/06/2024 08:51:43 73.06, 37.94 50.68 07/06/2024 08:52:55 73.06, 37.93 50.66 0.20 72
3 07/06/2024 09:42:39 -73.07,-154.78 129.32 07/06/2024 09:43:39 -73.07,-154.78 129.33 0.97 60
4 07/06/2024 10:33:40 73.10, 12.55 50.72 07/06/2024 10:34:26 73.11, 12.45 50.72 3.25 46
5 07/06/2024 11:24:36 -73.11, 179.83 129.28 07/06/2024 11:25:10 -73.12, 179.73 129.26 3.52 34
6 07/06/2024 12:15:38 73.10, -12.95 50.72 07/06/2024 12:15:56 73.11, -12.92 50.73 1.34 18
7 07/06/2024 13:06:33 -73.10, 154.33 129.27 07/06/2024 13:06:39 -73.12, 154.36 129.26 2.46 6
8 07/06/2024 13:57:34 73.14, -38.34 50.77 07/06/2024 13:57:26 73.16, -38.41 50.79 2.83 8
9 07/06/2024 14:48:30 -73.15, 128.94 129.23 07/06/2024 14:48:09 -73.12, 128.98 129.25 3.01 21
10 07/06/2024 15:39:32 73.14, -63.84 50.77 07/06/2024 15:38:56 73.16, -63.78 50.80 2.85 36
11 07/06/2024 16:30:27 -73.19, 103.55 129.18 07/06/2024 16:29:40 -73.17, 103.50 129.19 2.53 47
12 07/06/2024 17:21:29 73.18, -89.23 50.82 07/06/2024 17:20:27 73.21, -89.27 50.86 3.19 62
13 07/06/2024 18:12:25 -73.19, 78.05 129.18 07/06/2024 18:11:10 -73.17, 78.12 129.18 2.81 75
14 07/06/2024 19:03:16 73.72,-113.44 51.28 07/06/2024 19:02:07 73.71,-115.78 51.43 73.08 69



Historial Predications of SNOs between NOAA-19 and NPP
